Time,TemperatureF,DewpointF,PressureIn,WindDirection,WindDirectionDegrees,WindSpeedMPH,WindSpeedGustMPH,Humidity,HourlyPrecipIn,Conditions,Clouds,dailyrainin,SoftwareType,DateUTC
2013-04-13 00:00:00,20.2,7.0,0.00,East,92,2.5,-999.0,55,0.00,,,-99.99,,2013-04-13 08:00:00,
2013-04-13 00:07:00,20.3,6.8,0.00,East,88,15.5,-999.0,55,0.00,,,-99.99,,2013-04-13 08:07:00,
2013-04-13 00:12:00,20.6,6.7,0.00,ENE,63,14.6,-999.0,54,0.00,,,-99.99,,2013-04-13 08:12:00,
2013-04-13 00:23:00,20.5,7.1,0.00,East,80,10.1,-999.0,55,0.00,,,-99.99,,2013-04-13 08:23:00,
2013-04-13 00:29:00,20.3,7.0,0.00,East,80,7.8,-999.0,55,0.00,,,-99.99,,2013-04-13 08:29:00,
2013-04-13 00:34:00,20.1,7.4,0.00,ENE,64,13.0,-999.0,57,0.00,,,-99.99,,2013-04-13 08:34:00,
2013-04-13 00:39:00,20.0,7.5,0.00,ESE,122,4.9,-999.0,57,0.00,,,-99.99,,2013-04-13 08:39:00,
2013-04-13 00:47:00,20.3,7.1,0.00,East,89,10.3,-999.0,56,0.00,,,-99.99,,2013-04-13 08:47:00,
2013-04-13 00:52:00,20.2,6.4,0.00,ESE,105,8.1,-999.0,54,0.00,,,-99.99,,2013-04-13 08:52:00,
2013-04-13 00:57:00,20.2,6.9,0.00,East,94,5.3,-999.0,55,0.00,,,-99.99,,2013-04-13 08:57:00,
2013-04-13 01:02:00,19.9,7.0,0.00,ESE,109,7.3,-999.0,56,0.00,,,-99.99,,2013-04-13 09:02:00,
2013-04-13 01:07:00,20.1,7.6,0.00,ESE,113,4.6,-999.0,57,0.00,,,-99.99,,2013-04-13 09:07:00,
2013-04-13 01:13:00,19.9,7.5,0.00,ENE,70,8.9,-999.0,57,0.00,,,-99.99,,2013-04-13 09:13:00,
2013-04-13 01:19:00,19.9,7.2,0.00,NE,47,2.2,-999.0,57,0.00,,,-99.99,,2013-04-13 09:19:00,
2013-04-13 01:24:00,19.5,6.2,0.00,East,82,5.7,-999.0,55,0.00,,,-99.99,,2013-04-13 09:24:00,
2013-04-13 01:29:00,19.8,5.7,0.00,East,84,8.4,-999.0,53,0.00,,,-99.99,,2013-04-13 09:29:00,
2013-04-13 01:34:00,20.4,6.2,0.00,East,79,15.2,-999.0,53,0.00,,,-99.99,,2013-04-13 09:34:00,
2013-04-13 01:39:00,20.1,7.4,0.00,East,83,14.2,-999.0,57,0.00,,,-99.99,,2013-04-13 09:39:00,
2013-04-13 01:45:00,20.0,8.2,0.00,ESE,123,8.8,-999.0,59,0.00,,,-99.99,,2013-04-13 09:45:00,
2013-04-13 01:52:00,19.9,9.2,0.00,NE,56,9.1,-999.0,62,0.00,,,-99.99,,2013-04-13 09:52:00,
2013-04-13 02:02:00,20.0,9.1,0.00,East,97,13.5,-999.0,62,0.00,,,-99.99,,2013-04-13 10:02:00,
2013-04-13 02:07:00,20.2,9.3,0.00,ENE,65,14.1,-999.0,62,0.00,,,-99.99,,2013-04-13 10:07:00,
2013-04-13 02:14:00,20.1,9.3,0.00,SSE,162,10.1,-999.0,62,0.00,,,-99.99,,2013-04-13 10:14:00,
2013-04-13 02:19:00,19.4,9.3,0.00,ENE,70,6.3,-999.0,64,0.00,,,-99.99,,2013-04-13 10:19:00,
2013-04-13 02:24:00,19.0,9.1,0.00,ENE,78,10.5,-999.0,64,0.00,,,-99.99,,2013-04-13 10:24:00,
2013-04-13 02:29:00,19.0,9.2,0.00,East,81,9.7,-999.0,65,0.00,,,-99.99,,2013-04-13 10:29:00,
2013-04-13 02:34:00,19.5,9.0,0.00,ENE,69,8.2,-999.0,63,0.00,,,-99.99,,2013-04-13 10:34:00,
2013-04-13 02:40:00,19.3,8.9,0.00,SE,124,5.5,-999.0,63,0.00,,,-99.99,,2013-04-13 10:40:00,
2013-04-13 02:45:00,19.0,7.9,0.00,South,172,4.4,-999.0,61,0.00,,,-99.99,,2013-04-13 10:45:00,
2013-04-13 02:50:00,19.3,7.9,0.00,East,87,7.3,-999.0,60,0.00,,,-99.99,,2013-04-13 10:50:00,
2013-04-13 02:56:00,19.6,7.8,0.00,ENE,75,8.9,-999.0,59,0.00,,,-99.99,,2013-04-13 10:56:00,
2013-04-13 03:02:00,19.2,6.9,0.00,SE,130,5.5,-999.0,58,0.00,,,-99.99,,2013-04-13 11:02:00,
2013-04-13 03:07:00,19.6,5.6,0.00,SE,134,6.6,-999.0,54,0.00,,,-99.99,,2013-04-13 11:07:00,
2013-04-13 03:12:00,19.5,5.7,0.00,East,81,11.5,-999.0,54,0.00,,,-99.99,,2013-04-13 11:12:00,
2013-04-13 03:20:00,19.8,4.2,0.00,SE,139,6.6,-999.0,50,0.00,,,-99.99,,2013-04-13 11:20:00,
2013-04-13 03:26:00,19.5,5.2,0.00,ESE,110,10.5,-999.0,53,0.00,,,-99.99,,2013-04-13 11:26:00,
2013-04-13 03:32:00,19.4,5.5,0.00,East,94,8.2,-999.0,54,0.00,,,-99.99,,2013-04-13 11:32:00,
2013-04-13 03:37:00,19.7,6.2,0.00,East,82,7.5,-999.0,55,0.00,,,-99.99,,2013-04-13 11:37:00,
2013-04-13 03:43:00,19.8,6.5,0.00,ENE,74,7.0,-999.0,55,0.00,,,-99.99,,2013-04-13 11:43:00,
2013-04-13 03:50:00,19.6,6.9,0.00,ENE,68,13.9,-999.0,57,0.00,,,-99.99,,2013-04-13 11:50:00,
2013-04-13 03:55:00,19.7,6.9,0.00,NE,55,12.5,-999.0,57,0.00,,,-99.99,,2013-04-13 11:55:00,
2013-04-13 04:02:00,19.6,7.1,0.00,SE,142,10.4,-999.0,57,0.00,,,-99.99,,2013-04-13 12:02:00,
2013-04-13 04:07:00,19.4,7.9,0.00,ENE,74,16.0,-999.0,60,0.00,,,-99.99,,2013-04-13 12:07:00,
2013-04-13 04:18:00,19.6,8.5,0.00,East,86,15.0,-999.0,61,0.00,,,-99.99,,2013-04-13 12:18:00,
2013-04-13 04:25:00,19.7,8.1,0.00,ENE,73,15.3,-999.0,60,0.00,,,-99.99,,2013-04-13 12:25:00,
2013-04-13 04:30:00,19.5,8.1,0.00,ESE,107,8.8,-999.0,60,0.00,,,-99.99,,2013-04-13 12:30:00,
2013-04-13 04:39:00,19.2,7.8,0.00,ESE,104,9.6,-999.0,60,0.00,,,-99.99,,2013-04-13 12:39:00,
2013-04-13 04:45:00,19.2,8.1,0.00,ENE,71,13.2,-999.0,61,0.00,,,-99.99,,2013-04-13 12:45:00,
2013-04-13 04:53:00,19.2,7.8,0.00,ESE,105,6.7,-999.0,60,0.00,,,-99.99,,2013-04-13 12:53:00,
2013-04-13 05:02:00,18.9,7.2,0.00,ENE,70,11.4,-999.0,59,0.00,,,-99.99,,2013-04-13 13:02:00,
2013-04-13 05:08:00,18.7,8.1,0.00,ESE,104,7.6,-999.0,62,0.00,,,-99.99,,2013-04-13 13:08:00,
2013-04-13 05:13:00,18.9,8.9,0.00,ENE,73,13.2,-999.0,64,0.00,,,-99.99,,2013-04-13 13:13:00,
2013-04-13 05:20:00,18.8,8.5,0.00,ENE,74,10.6,-999.0,63,0.00,,,-99.99,,2013-04-13 13:20:00,
2013-04-13 05:30:00,19.2,7.0,0.00,SE,125,10.8,-999.0,58,0.00,,,-99.99,,2013-04-13 13:30:00,
2013-04-13 05:35:00,18.7,8.5,0.00,ENE,65,8.9,-999.0,63,0.00,,,-99.99,,2013-04-13 13:35:00,
2013-04-13 05:40:00,19.2,7.8,0.00,East,86,10.8,-999.0,60,0.00,,,-99.99,,2013-04-13 13:40:00,
2013-04-13 05:45:00,19.1,7.9,0.00,East,91,4.7,-999.0,61,0.00,,,-99.99,,2013-04-13 13:45:00,
2013-04-13 05:50:00,19.5,7.1,0.00,East,85,8.8,-999.0,57,0.00,,,-99.99,,2013-04-13 13:50:00,
2013-04-13 05:55:00,19.5,7.8,0.00,ENE,77,10.1,-999.0,59,0.00,,,-99.99,,2013-04-13 13:55:00,
2013-04-13 06:00:00,18.9,8.0,0.00,East,101,8.7,-999.0,61,0.00,,,-99.99,,2013-04-13 14:00:00,
2013-04-13 06:05:00,18.8,8.7,0.00,East,89,7.6,-999.0,64,0.00,,,-99.99,,2013-04-13 14:05:00,
2013-04-13 06:10:00,19.2,8.8,0.00,ENE,64,12.4,-999.0,63,0.00,,,-99.99,,2013-04-13 14:10:00,
2013-04-13 06:15:00,18.9,8.7,0.00,ENE,75,9.5,-999.0,63,0.00,,,-99.99,,2013-04-13 14:15:00,
2013-04-13 06:20:00,18.9,8.1,0.00,ENE,73,11.4,-999.0,62,0.00,,,-99.99,,2013-04-13 14:20:00,
2013-04-13 06:25:00,19.3,7.6,0.00,SE,133,9.6,-999.0,59,0.00,,,-99.99,,2013-04-13 14:25:00,
2013-04-13 06:30:00,19.6,8.1,0.00,ENE,78,12.9,-999.0,60,0.00,,,-99.99,,2013-04-13 14:30:00,
2013-04-13 06:36:00,19.4,8.5,0.00,East,96,7.7,-999.0,62,0.00,,,-99.99,,2013-04-13 14:36:00,
2013-04-13 06:42:00,19.0,8.3,0.00,ENE,68,12.6,-999.0,62,0.00,,,-99.99,,2013-04-13 14:42:00,
2013-04-13 06:47:00,18.7,8.8,0.00,ENE,60,13.4,-999.0,64,0.00,,,-99.99,,2013-04-13 14:47:00,
2013-04-13 06:53:00,19.1,8.2,0.00,ESE,117,7.7,-999.0,61,0.00,,,-99.99,,2013-04-13 14:53:00,
2013-04-13 06:58:00,19.2,7.8,0.00,East,83,13.4,-999.0,60,0.00,,,-99.99,,2013-04-13 14:58:00,
2013-04-13 07:03:00,19.2,8.1,0.00,East,97,6.3,-999.0,61,0.00,,,-99.99,,2013-04-13 15:03:00,
2013-04-13 07:09:00,19.4,8.2,0.00,ENE,63,14.4,-999.0,61,0.00,,,-99.99,,2013-04-13 15:09:00,
2013-04-13 07:14:00,18.2,8.5,0.00,ENE,77,9.0,-999.0,65,0.00,,,-99.99,,2013-04-13 15:14:00,
2013-04-13 07:19:00,18.6,8.8,0.00,ENE,69,4.4,-999.0,64,0.00,,,-99.99,,2013-04-13 15:19:00,
2013-04-13 07:25:00,19.6,7.3,0.00,NE,52,9.5,-999.0,58,0.00,,,-99.99,,2013-04-13 15:25:00,
2013-04-13 07:30:00,19.9,7.7,0.00,ENE,72,7.9,-999.0,58,0.00,,,-99.99,,2013-04-13 15:30:00,
2013-04-13 07:35:00,19.6,6.8,0.00,East,84,11.5,-999.0,56,0.00,,,-99.99,,2013-04-13 15:35:00,
2013-04-13 07:40:00,20.0,7.6,0.00,ENE,66,13.5,-999.0,57,0.00,,,-99.99,,2013-04-13 15:40:00,
2013-04-13 07:45:00,19.5,8.2,0.00,East,84,11.0,-999.0,60,0.00,,,-99.99,,2013-04-13 15:45:00,
2013-04-13 07:50:00,19.2,8.3,0.00,ENE,60,10.0,-999.0,61,0.00,,,-99.99,,2013-04-13 15:50:00,
2013-04-13 07:55:00,20.0,8.2,0.00,ENE,65,12.2,-999.0,59,0.00,,,-99.99,,2013-04-13 15:55:00,
2013-04-13 08:00:00,20.4,6.7,0.00,ESE,112,4.7,-999.0,54,0.00,,,-99.99,,2013-04-13 16:00:00,
2013-04-13 08:05:00,20.4,7.6,0.00,ESE,122,5.8,-999.0,56,0.00,,,-99.99,,2013-04-13 16:05:00,
2013-04-13 08:10:00,20.4,7.6,0.00,ENE,70,10.6,-999.0,57,0.00,,,-99.99,,2013-04-13 16:10:00,
2013-04-13 08:15:00,21.0,8.3,0.00,NE,55,3.5,-999.0,57,0.00,,,-99.99,,2013-04-13 16:15:00,
2013-04-13 08:22:00,20.5,8.0,0.00,SE,142,3.4,-999.0,57,0.00,,,-99.99,,2013-04-13 16:22:00,
2013-04-13 08:28:00,20.2,9.0,0.00,ENE,72,6.1,-999.0,61,0.00,,,-99.99,,2013-04-13 16:28:00,
2013-04-13 08:33:00,20.8,8.2,0.00,ENE,68,12.3,-999.0,57,0.00,,,-99.99,,2013-04-13 16:33:00,
2013-04-13 08:38:00,20.4,9.0,0.00,East,88,6.3,-999.0,60,0.00,,,-99.99,,2013-04-13 16:38:00,
2013-04-13 08:43:00,21.7,6.9,0.00,East,91,7.6,-999.0,52,0.00,,,-99.99,,2013-04-13 16:43:00,
2013-04-13 08:48:00,22.0,6.5,0.00,SE,137,12.2,-999.0,50,0.00,,,-99.99,,2013-04-13 16:48:00,
2013-04-13 08:53:00,22.3,6.7,0.00,ESE,114,10.3,-999.0,50,0.00,,,-99.99,,2013-04-13 16:53:00,
2013-04-13 08:59:00,22.7,7.0,0.00,ESE,117,9.9,-999.0,50,0.00,,,-99.99,,2013-04-13 16:59:00,
2013-04-13 09:04:00,22.8,6.3,0.00,SE,142,13.2,-999.0,48,0.00,,,-99.99,,2013-04-13 17:04:00,
2013-04-13 09:09:00,23.2,6.8,0.00,SE,126,8.6,-999.0,48,0.00,,,-99.99,,2013-04-13 17:09:00,
2013-04-13 09:15:00,22.9,5.9,0.00,ENE,73,6.8,-999.0,47,0.00,,,-99.99,,2013-04-13 17:15:00,
2013-04-13 09:20:00,23.1,7.7,0.00,SE,128,7.6,-999.0,51,0.00,,,-99.99,,2013-04-13 17:20:00,
2013-04-13 09:25:00,23.3,8.5,0.00,SE,139,7.9,-999.0,52,0.00,,,-99.99,,2013-04-13 17:25:00,
2013-04-13 09:30:00,22.8,8.4,0.00,SE,134,11.5,-999.0,53,0.00,,,-99.99,,2013-04-13 17:30:00,
2013-04-13 09:35:00,23.1,9.0,0.00,SE,136,7.2,-999.0,54,0.00,,,-99.99,,2013-04-13 17:35:00,
2013-04-13 09:42:00,23.4,7.2,0.00,NNW,340,0.5,-999.0,49,0.00,,,-99.99,,2013-04-13 17:42:00,
2013-04-13 09:48:00,23.0,8.4,0.00,ESE,106,5.8,-999.0,52,0.00,,,-99.99,,2013-04-13 17:48:00,
2013-04-13 09:59:00,24.0,8.2,0.00,ESE,107,3.8,-999.0,50,0.00,,,-99.99,,2013-04-13 17:59:00,
2013-04-13 10:04:00,24.4,8.4,0.00,SE,136,8.1,-999.0,50,0.00,,,-99.99,,2013-04-13 18:04:00,
2013-04-13 10:09:00,23.6,7.7,0.00,South,173,10.1,-999.0,50,0.48,,,-99.99,,2013-04-13 18:09:00,
2013-04-13 10:14:00,23.7,9.0,0.00,SE,127,10.1,-999.0,53,0.48,,,-99.99,,2013-04-13 18:14:00,
2013-04-13 10:19:00,23.7,7.8,0.00,SE,143,9.0,-999.0,50,0.60,,,-99.99,,2013-04-13 18:19:00,
2013-04-13 10:26:00,24.5,8.1,0.00,East,94,3.7,-999.0,49,0.63,,,-99.99,,2013-04-13 18:26:00,
2013-04-13 10:27:00,24.5,7.8,0.00,ESE,114,9.4,-999.0,48,0.63,,,-99.99,,2013-04-13 18:27:00,
2013-04-13 10:28:00,24.1,7.8,0.00,ESE,114,15.4,-999.0,49,0.63,,,-99.99,,2013-04-13 18:28:00,
2013-04-13 10:29:00,24.0,7.2,0.00,ESE,114,9.2,-999.0,48,0.63,,,-99.99,,2013-04-13 18:29:00,
2013-04-13 10:34:00,24.7,8.3,0.00,SE,146,3.8,-999.0,49,0.63,,,-99.99,,2013-04-13 18:34:00,
2013-04-13 10:40:00,24.5,7.9,0.00,ESE,114,6.1,-999.0,48,0.63,,,-99.99,,2013-04-13 18:40:00,
2013-04-13 10:45:00,24.0,8.3,0.00,ENE,75,11.5,-999.0,50,0.63,,,-99.99,,2013-04-13 18:45:00,
2013-04-13 10:49:00,24.5,8.5,0.00,SE,132,7.7,-999.0,49,0.63,,,-99.99,,2013-04-13 18:49:00,
2013-04-13 10:54:00,24.4,8.6,0.00,SE,134,9.2,-999.0,50,0.63,,,-99.99,,2013-04-13 18:54:00,
2013-04-13 10:59:00,24.4,8.4,0.00,ESE,110,3.8,-999.0,50,0.00,,,-99.99,,2013-04-13 18:59:00,
2013-04-13 11:04:00,25.8,8.6,0.00,ESE,123,4.8,-999.0,47,0.00,,,-99.99,,2013-04-13 19:04:00,
2013-04-13 11:09:00,25.9,7.9,0.00,ESE,118,7.1,-999.0,45,0.00,,,-99.99,,2013-04-13 19:09:00,
2013-04-13 11:14:00,24.9,8.3,0.00,ENE,73,5.7,-999.0,48,0.00,,,-99.99,,2013-04-13 19:14:00,
2013-04-13 11:19:00,25.0,6.9,0.00,SSE,165,6.1,-999.0,45,0.00,,,-99.99,,2013-04-13 19:19:00,
2013-04-13 11:24:00,24.9,7.8,0.00,SE,131,10.7,-999.0,47,0.00,,,-99.99,,2013-04-13 19:24:00,
2013-04-13 11:29:00,24.5,7.8,0.00,East,85,5.1,-999.0,48,0.00,,,-99.99,,2013-04-13 19:29:00,
2013-04-13 11:34:00,24.9,8.2,0.00,SSE,156,7.4,-999.0,48,0.00,,,-99.99,,2013-04-13 19:34:00,
2013-04-13 11:39:00,24.7,7.8,0.00,SSE,148,3.9,-999.0,48,0.00,,,-99.99,,2013-04-13 19:39:00,
2013-04-13 11:44:00,24.7,7.8,0.00,East,79,11.5,-999.0,48,0.00,,,-99.99,,2013-04-13 19:44:00,
2013-04-13 11:49:00,24.7,8.2,0.00,ENE,78,7.2,-999.0,48,0.00,,,-99.99,,2013-04-13 19:49:00,
2013-04-13 11:54:00,25.0,7.7,0.00,SE,130,5.7,-999.0,47,0.00,,,-99.99,,2013-04-13 19:54:00,
2013-04-13 11:59:00,25.0,8.3,0.00,ESE,120,8.1,-999.0,48,0.00,,,-99.99,,2013-04-13 19:59:00,
2013-04-13 12:04:00,25.5,8.6,0.00,SE,130,7.6,-999.0,48,0.00,,,-99.99,,2013-04-13 20:04:00,
2013-04-13 12:09:00,24.7,6.9,0.00,ESE,114,6.3,-999.0,46,0.00,,,-99.99,,2013-04-13 20:09:00,
2013-04-13 12:15:00,25.1,8.3,0.00,East,86,5.6,-999.0,48,0.00,,,-99.99,,2013-04-13 20:15:00,
2013-04-13 12:20:00,24.9,7.0,0.00,East,83,15.9,-999.0,46,0.00,,,-99.99,,2013-04-13 20:20:00,
2013-04-13 12:25:00,25.2,7.6,0.00,East,95,7.8,-999.0,46,0.00,,,-99.99,,2013-04-13 20:25:00,
2013-04-13 12:30:00,25.0,6.8,0.00,ESE,105,6.0,-999.0,45,0.00,,,-99.99,,2013-04-13 20:30:00,
2013-04-13 12:35:00,25.5,7.0,0.00,SSE,150,9.6,-999.0,44,0.00,,,-99.99,,2013-04-13 20:35:00,
2013-04-13 12:40:00,26.1,7.2,0.00,East,91,8.2,-999.0,43,0.00,,,-99.99,,2013-04-13 20:40:00,
2013-04-13 12:45:00,26.4,6.1,0.00,SSE,148,6.9,-999.0,41,0.00,,,-99.99,,2013-04-13 20:45:00,
2013-04-13 12:50:00,26.4,7.1,0.00,NE,55,8.2,-999.0,43,0.00,,,-99.99,,2013-04-13 20:50:00,
2013-04-13 12:55:00,26.2,5.9,0.00,ENE,71,5.6,-999.0,41,0.00,,,-99.99,,2013-04-13 20:55:00,
2013-04-13 13:00:00,26.2,5.7,0.00,ENE,74,7.4,-999.0,41,0.00,,,-99.99,,2013-04-13 21:00:00,
2013-04-13 13:05:00,26.5,6.4,0.00,ENE,60,9.5,-999.0,41,0.00,,,-99.99,,2013-04-13 21:05:00,
2013-04-13 13:10:00,26.4,6.3,0.00,East,97,8.8,-999.0,41,0.00,,,-99.99,,2013-04-13 21:10:00,
2013-04-13 13:15:00,25.6,4.9,0.00,East,82,7.5,-999.0,40,0.00,,,-99.99,,2013-04-13 21:15:00,
2013-04-13 13:20:00,25.8,4.9,0.00,East,95,14.6,-999.0,40,0.00,,,-99.99,,2013-04-13 21:20:00,
2013-04-13 13:25:00,25.8,5.0,0.00,ESE,103,11.7,-999.0,40,0.00,,,-99.99,,2013-04-13 21:25:00,
2013-04-13 13:30:00,26.0,5.0,0.00,ENE,67,9.3,-999.0,40,0.00,,,-99.99,,2013-04-13 21:30:00,
2013-04-13 13:35:00,26.2,5.2,0.00,ENE,77,9.7,-999.0,40,0.00,,,-99.99,,2013-04-13 21:35:00,
2013-04-13 13:40:00,26.1,5.1,0.00,East,80,15.0,-999.0,40,0.00,,,-99.99,,2013-04-13 21:40:00,
2013-04-13 13:45:00,26.4,4.2,0.00,ENE,64,7.4,-999.0,38,0.00,,,-99.99,,2013-04-13 21:45:00,
2013-04-13 13:50:00,26.7,6.3,0.00,ENE,58,13.9,-999.0,41,0.00,,,-99.99,,2013-04-13 21:50:00,
2013-04-13 13:55:00,26.9,6.0,0.00,ENE,72,8.3,-999.0,40,0.00,,,-99.99,,2013-04-13 21:55:00,
2013-04-13 14:00:00,27.0,6.2,0.00,East,82,9.0,-999.0,40,0.00,,,-99.99,,2013-04-13 22:00:00,
2013-04-13 14:05:00,26.9,4.7,0.00,East,79,12.4,-999.0,37,0.00,,,-99.99,,2013-04-13 22:05:00,
2013-04-13 14:10:00,26.9,5.3,0.00,SE,125,12.3,-999.0,39,0.00,,,-99.99,,2013-04-13 22:10:00,
2013-04-13 14:15:00,27.3,6.6,0.00,East,94,12.9,-999.0,40,0.00,,,-99.99,,2013-04-13 22:15:00,
2013-04-13 14:20:00,27.0,7.2,0.00,East,80,9.9,-999.0,42,0.00,,,-99.99,,2013-04-13 22:20:00,
2013-04-13 14:25:00,27.5,4.4,0.00,SE,127,6.3,-999.0,36,0.00,,,-99.99,,2013-04-13 22:25:00,
2013-04-13 14:30:00,27.8,1.9,0.00,East,80,12.6,-999.0,32,0.00,,,-99.99,,2013-04-13 22:30:00,
2013-04-13 14:35:00,27.3,3.9,0.00,East,87,6.2,-999.0,36,0.00,,,-99.99,,2013-04-13 22:35:00,
2013-04-13 14:40:00,27.3,2.2,0.00,East,98,14.0,-999.0,33,0.00,,,-99.99,,2013-04-13 22:40:00,
2013-04-13 14:45:00,27.6,3.4,0.00,SE,128,4.9,-999.0,34,0.00,,,-99.99,,2013-04-13 22:45:00,
2013-04-13 14:50:00,28.1,3.6,0.00,ESE,120,8.8,-999.0,34,0.00,,,-99.99,,2013-04-13 22:50:00,
2013-04-13 14:55:00,28.2,5.1,0.00,ENE,73,13.2,-999.0,36,0.00,,,-99.99,,2013-04-13 22:55:00,
2013-04-13 15:00:00,27.9,3.5,0.00,SE,132,7.5,-999.0,34,0.00,,,-99.99,,2013-04-13 23:00:00,
2013-04-13 15:05:00,28.0,3.8,0.00,SE,137,9.7,-999.0,34,0.00,,,-99.99,,2013-04-13 23:05:00,
2013-04-13 15:10:00,28.1,5.4,0.00,East,83,8.9,-999.0,37,0.00,,,-99.99,,2013-04-13 23:10:00,
2013-04-13 15:15:00,27.8,2.7,0.00,SSE,148,14.8,-999.0,33,0.00,,,-99.99,,2013-04-13 23:15:00,
2013-04-13 15:20:00,27.9,3.3,0.00,ESE,119,9.7,-999.0,34,0.00,,,-99.99,,2013-04-13 23:20:00,
2013-04-13 15:25:00,27.9,4.0,0.00,SSE,148,10.3,-999.0,35,0.00,,,-99.99,,2013-04-13 23:25:00,
2013-04-13 15:30:00,28.4,5.7,0.00,South,173,7.4,-999.0,37,0.00,,,-99.99,,2013-04-13 23:30:00,
2013-04-13 15:35:00,28.3,8.8,0.00,East,83,5.9,-999.0,43,0.00,,,-99.99,,2013-04-13 23:35:00,
2013-04-13 15:40:00,28.0,7.9,0.00,East,90,7.0,-999.0,42,0.01,,,-99.99,,2013-04-13 23:40:00,
2013-04-13 15:45:00,28.1,7.3,0.00,ENE,75,15.7,-999.0,40,0.01,,,-99.99,,2013-04-13 23:45:00,
2013-04-13 15:50:00,28.3,4.9,0.00,SE,128,8.8,-999.0,36,0.01,,,-99.99,,2013-04-13 23:50:00,
2013-04-13 15:55:00,28.1,5.5,0.00,SE,128,7.5,-999.0,37,0.01,,,-99.99,,2013-04-13 23:55:00,
2013-04-13 16:00:00,27.9,5.9,0.00,ESE,121,12.1,-999.0,38,0.00,,,-99.99,,2013-04-14 00:00:00,
2013-04-13 16:05:00,28.3,6.8,0.00,SE,140,7.2,-999.0,39,0.00,,,-99.99,,2013-04-14 00:05:00,
2013-04-13 16:10:00,28.1,6.8,0.00,ENE,64,8.1,-999.0,39,0.00,,,-99.99,,2013-04-14 00:10:00,
2013-04-13 16:15:00,28.2,7.9,0.00,SE,136,4.6,-999.0,41,0.00,,,-99.99,,2013-04-14 00:15:00,
2013-04-13 16:20:00,27.8,8.0,0.00,SE,129,11.6,-999.0,42,0.00,,,-99.99,,2013-04-14 00:20:00,
2013-04-13 16:25:00,27.5,8.2,0.00,SE,127,10.8,-999.0,43,0.00,,,-99.99,,2013-04-14 00:25:00,
2013-04-13 16:30:00,27.8,9.5,0.00,SE,134,7.2,-999.0,45,0.00,,,-99.99,,2013-04-14 00:30:00,
2013-04-13 16:35:00,27.9,8.8,0.00,ESE,121,9.1,-999.0,43,0.00,,,-99.99,,2013-04-14 00:35:00,
2013-04-13 16:40:00,28.4,8.0,0.00,SSE,157,4.0,-999.0,41,0.00,,,-99.99,,2013-04-14 00:40:00,
2013-04-13 16:45:00,28.2,8.1,0.00,ESE,115,5.3,-999.0,42,0.00,,,-99.99,,2013-04-14 00:45:00,
2013-04-13 16:50:00,28.8,8.9,0.00,ESE,123,2.8,-999.0,42,0.00,,,-99.99,,2013-04-14 00:50:00,
2013-04-13 16:55:00,28.4,8.6,0.00,East,94,7.5,-999.0,42,0.00,,,-99.99,,2013-04-14 00:55:00,
2013-04-13 17:00:00,27.7,8.9,0.00,SE,135,6.5,-999.0,44,0.00,,,-99.99,,2013-04-14 01:00:00,
2013-04-13 17:05:00,29.2,9.6,0.00,East,83,1.8,-999.0,43,0.00,,,-99.99,,2013-04-14 01:05:00,
2013-04-13 17:10:00,28.0,9.3,0.00,ESE,103,6.4,-999.0,44,0.00,,,-99.99,,2013-04-14 01:10:00,
2013-04-13 17:15:00,27.8,10.4,0.00,East,79,8.1,-999.0,47,0.00,,,-99.99,,2013-04-14 01:15:00,
2013-04-13 17:20:00,27.4,10.1,0.00,SSE,152,10.9,-999.0,47,0.00,,,-99.99,,2013-04-14 01:20:00,
2013-04-13 17:25:00,27.7,10.2,0.00,East,92,5.8,-999.0,47,0.00,,,-99.99,,2013-04-14 01:25:00,
2013-04-13 17:30:00,27.9,11.4,0.00,East,90,5.3,-999.0,49,0.00,,,-99.99,,2013-04-14 01:30:00,
2013-04-13 17:35:00,27.5,10.3,0.00,East,80,8.8,-999.0,47,0.00,,,-99.99,,2013-04-14 01:35:00,
2013-04-13 17:40:00,27.6,11.0,0.00,ENE,60,9.7,-999.0,49,0.00,,,-99.99,,2013-04-14 01:40:00,
2013-04-13 17:45:00,27.6,10.2,0.00,East,85,4.9,-999.0,47,0.00,,,-99.99,,2013-04-14 01:45:00,
2013-04-13 17:52:00,28.0,11.3,0.00,SE,142,2.9,-999.0,49,0.00,,,-99.99,,2013-04-14 01:52:00,
2013-04-13 17:57:00,27.7,12.1,0.00,ENE,69,8.1,-999.0,51,0.00,,,-99.99,,2013-04-14 01:57:00,
2013-04-13 18:02:00,27.4,10.7,0.00,ENE,78,9.2,-999.0,48,0.00,,,-99.99,,2013-04-14 02:02:00,
2013-04-13 18:07:00,27.6,9.7,0.00,ENE,62,11.7,-999.0,46,0.00,,,-99.99,,2013-04-14 02:07:00,
2013-04-13 18:12:00,27.6,11.1,0.00,ENE,69,5.1,-999.0,49,0.00,,,-99.99,,2013-04-14 02:12:00,
2013-04-13 18:17:00,27.5,11.6,0.00,East,88,5.3,-999.0,50,0.00,,,-99.99,,2013-04-14 02:17:00,
2013-04-13 18:22:00,27.3,10.6,0.00,ESE,115,7.6,-999.0,48,0.00,,,-99.99,,2013-04-14 02:22:00,
2013-04-13 18:27:00,27.5,11.2,0.00,SE,134,7.6,-999.0,49,0.00,,,-99.99,,2013-04-14 02:27:00,
2013-04-13 18:32:00,27.1,9.3,0.00,East,82,6.1,-999.0,46,0.00,,,-99.99,,2013-04-14 02:32:00,
2013-04-13 18:38:00,27.2,8.8,0.00,East,87,9.8,-999.0,45,0.00,,,-99.99,,2013-04-14 02:38:00,
2013-04-13 18:43:00,27.3,9.4,0.00,ENE,58,7.8,-999.0,46,0.00,,,-99.99,,2013-04-14 02:43:00,
2013-04-13 18:48:00,27.2,8.3,0.00,ENE,74,5.0,-999.0,44,0.00,,,-99.99,,2013-04-14 02:48:00,
2013-04-13 18:54:00,27.0,7.8,0.00,East,85,8.2,-999.0,43,0.00,,,-99.99,,2013-04-14 02:54:00,
2013-04-13 18:59:00,27.5,8.2,0.00,NE,55,4.2,-999.0,43,0.00,,,-99.99,,2013-04-14 02:59:00,
2013-04-13 19:04:00,27.1,7.7,0.00,ESE,115,6.5,-999.0,43,0.00,,,-99.99,,2013-04-14 03:04:00,
2013-04-13 19:09:00,27.3,7.9,0.00,ENE,61,8.6,-999.0,43,0.00,,,-99.99,,2013-04-14 03:09:00,
2013-04-13 19:14:00,27.0,7.8,0.00,ENE,73,7.4,-999.0,43,0.00,,,-99.99,,2013-04-14 03:14:00,
2013-04-13 19:19:00,26.7,7.7,0.00,ESE,104,6.1,-999.0,44,0.00,,,-99.99,,2013-04-14 03:19:00,
2013-04-13 19:24:00,27.1,7.6,0.00,ENE,69,5.8,-999.0,43,0.00,,,-99.99,,2013-04-14 03:24:00,
2013-04-13 19:29:00,27.1,7.3,0.00,SE,124,3.8,-999.0,42,0.00,,,-99.99,,2013-04-14 03:29:00,
2013-04-13 19:34:00,26.9,7.9,0.00,ENE,78,11.5,-999.0,44,0.00,,,-99.99,,2013-04-14 03:34:00,
2013-04-13 19:39:00,27.0,7.3,0.00,ESE,114,3.6,-999.0,42,0.00,,,-99.99,,2013-04-14 03:39:00,
2013-04-13 19:44:00,27.0,6.8,0.00,NE,56,4.9,-999.0,41,0.00,,,-99.99,,2013-04-14 03:44:00,
2013-04-13 19:49:00,27.0,7.9,0.00,SSE,148,4.3,-999.0,43,0.00,,,-99.99,,2013-04-14 03:49:00,
2013-04-13 19:54:00,26.9,7.9,0.00,East,99,6.1,-999.0,44,0.00,,,-99.99,,2013-04-14 03:54:00,
2013-04-13 19:59:00,26.6,7.9,0.00,East,89,5.9,-999.0,44,0.00,,,-99.99,,2013-04-14 03:59:00,
2013-04-13 20:00:00,26.6,7.7,0.00,ENE,71,7.0,-999.0,44,0.00,,,-99.99,,2013-04-14 04:00:00,
2013-04-13 20:02:00,26.7,8.2,0.00,East,83,5.1,-999.0,45,0.00,,,-99.99,,2013-04-14 04:02:00,
2013-04-13 20:03:00,26.9,9.0,0.00,SSE,149,2.4,-999.0,46,0.00,,,-99.99,,2013-04-14 04:03:00,
2013-04-13 20:05:00,26.9,8.5,0.00,ENE,72,7.6,-999.0,45,0.00,,,-99.99,,2013-04-14 04:05:00,
2013-04-13 20:10:00,26.6,7.6,0.00,ENE,63,5.8,-999.0,44,0.00,,,-99.99,,2013-04-14 04:10:00,
2013-04-13 20:15:00,26.5,9.2,0.00,ENE,74,7.9,-999.0,47,0.00,,,-99.99,,2013-04-14 04:15:00,
2013-04-13 20:20:00,26.2,8.1,0.00,East,82,8.9,-999.0,45,0.00,,,-99.99,,2013-04-14 04:20:00,
2013-04-13 20:27:00,26.3,7.2,0.00,East,81,5.1,-999.0,43,0.00,,,-99.99,,2013-04-14 04:27:00,
2013-04-13 20:32:00,26.1,8.5,0.00,East,82,4.5,-999.0,46,0.00,,,-99.99,,2013-04-14 04:32:00,
2013-04-13 20:37:00,25.6,7.6,0.00,East,90,6.8,-999.0,45,0.00,,,-99.99,,2013-04-14 04:37:00,
2013-04-13 20:42:00,25.8,7.8,0.00,ENE,61,8.2,-999.0,45,0.00,,,-99.99,,2013-04-14 04:42:00,
2013-04-13 20:47:00,25.7,7.1,0.00,East,92,8.2,-999.0,44,0.00,,,-99.99,,2013-04-14 04:47:00,
2013-04-13 20:52:00,25.7,6.5,0.00,East,84,6.7,-999.0,43,0.00,,,-99.99,,2013-04-14 04:52:00,
2013-04-13 20:57:00,25.4,8.6,0.00,East,86,5.2,-999.0,48,0.00,,,-99.99,,2013-04-14 04:57:00,
2013-04-13 21:02:00,25.3,8.1,0.00,East,92,7.6,-999.0,47,0.00,,,-99.99,,2013-04-14 05:02:00,
2013-04-13 21:07:00,25.0,8.1,0.00,East,86,4.1,-999.0,47,0.00,,,-99.99,,2013-04-14 05:07:00,
2013-04-13 21:12:00,24.9,7.2,0.00,ESE,102,5.5,-999.0,46,0.00,,,-99.99,,2013-04-14 05:12:00,
2013-04-13 21:17:00,25.0,7.4,0.00,East,83,6.3,-999.0,46,0.00,,,-99.99,,2013-04-14 05:17:00,
2013-04-13 21:23:00,24.7,6.9,0.00,ESE,102,5.6,-999.0,46,0.00,,,-99.99,,2013-04-14 05:23:00,
2013-04-13 21:28:00,25.1,6.8,0.00,East,80,6.8,-999.0,44,0.00,,,-99.99,,2013-04-14 05:28:00,
2013-04-13 21:33:00,25.0,7.3,0.00,ENE,71,13.1,-999.0,46,0.00,,,-99.99,,2013-04-14 05:33:00,
2013-04-13 21:38:00,25.3,6.4,0.00,ENE,78,10.2,-999.0,43,0.00,,,-99.99,,2013-04-14 05:38:00,
2013-04-13 21:43:00,25.3,6.8,0.00,ENE,70,17.3,-999.0,44,0.00,,,-99.99,,2013-04-14 05:43:00,
2013-04-13 21:48:00,25.3,6.8,0.00,East,84,9.0,-999.0,44,0.00,,,-99.99,,2013-04-14 05:48:00,
2013-04-13 21:53:00,25.3,6.8,0.00,East,80,6.1,-999.0,44,0.00,,,-99.99,,2013-04-14 05:53:00,
2013-04-13 21:59:00,25.1,7.7,0.00,East,83,7.9,-999.0,46,0.00,,,-99.99,,2013-04-14 05:59:00,
2013-04-13 22:05:00,24.5,8.6,0.00,ENE,70,5.1,-999.0,50,0.00,,,-99.99,,2013-04-14 06:05:00,
2013-04-13 22:10:00,24.7,8.2,0.00,East,82,4.9,-999.0,48,0.00,,,-99.99,,2013-04-14 06:10:00,
2013-04-13 22:15:00,24.9,8.5,0.00,East,82,7.0,-999.0,49,0.00,,,-99.99,,2013-04-14 06:15:00,
2013-04-13 22:20:00,25.2,7.2,0.00,ENE,66,13.6,-999.0,45,0.00,,,-99.99,,2013-04-14 06:20:00,
2013-04-13 22:26:00,25.5,7.9,0.00,ENE,74,9.1,-999.0,46,0.00,,,-99.99,,2013-04-14 06:26:00,
2013-04-13 22:31:00,25.2,7.3,0.00,ENE,59,12.4,-999.0,45,0.00,,,-99.99,,2013-04-14 06:31:00,
2013-04-13 22:36:00,25.5,7.8,0.00,ENE,64,9.3,-999.0,46,0.00,,,-99.99,,2013-04-14 06:36:00,
2013-04-13 22:41:00,25.2,8.1,0.00,East,99,6.6,-999.0,47,0.00,,,-99.99,,2013-04-14 06:41:00,
2013-04-13 22:46:00,25.2,8.1,0.00,SSW,200,4.9,-999.0,47,0.00,,,-99.99,,2013-04-14 06:46:00,
2013-04-13 22:52:00,25.1,8.4,0.00,ESE,118,2.3,-999.0,48,0.00,,,-99.99,,2013-04-14 06:52:00,
2013-04-13 22:59:00,24.9,8.3,0.00,East,82,4.3,-999.0,48,0.00,,,-99.99,,2013-04-14 06:59:00,
2013-04-13 23:04:00,25.3,8.1,0.00,East,87,3.7,-999.0,47,0.00,,,-99.99,,2013-04-14 07:04:00,
2013-04-13 23:09:00,25.1,8.0,0.00,NE,48,5.6,-999.0,47,0.00,,,-99.99,,2013-04-14 07:09:00,
2013-04-13 23:14:00,25.7,6.5,0.00,ENE,76,6.4,-999.0,43,0.00,,,-99.99,,2013-04-14 07:14:00,
2013-04-13 23:19:00,25.1,8.5,0.00,NE,41,5.0,-999.0,48,0.00,,,-99.99,,2013-04-14 07:19:00,
2013-04-13 23:24:00,25.7,6.3,0.00,East,79,2.3,-999.0,43,0.00,,,-99.99,,2013-04-14 07:24:00,
2013-04-13 23:29:00,25.5,7.6,0.00,ENE,59,9.4,-999.0,46,0.00,,,-99.99,,2013-04-14 07:29:00,
2013-04-13 23:34:00,25.5,8.1,0.00,NE,47,4.9,-999.0,47,0.00,,,-99.99,,2013-04-14 07:34:00,
2013-04-13 23:39:00,25.3,6.8,0.00,ESE,120,4.1,-999.0,44,0.00,,,-99.99,,2013-04-14 07:39:00,
2013-04-13 23:44:00,25.6,6.5,0.00,ESE,120,7.5,-999.0,43,0.00,,,-99.99,,2013-04-14 07:44:00,
2013-04-13 23:49:00,26.1,6.7,0.00,SSE,168,2.9,-999.0,43,0.00,,,-99.99,,2013-04-14 07:49:00,
2013-04-13 23:54:00,26.2,6.1,0.00,ESE,105,1.0,-999.0,41,0.00,,,-99.99,,2013-04-14 07:54:00,
2013-04-13 23:59:00,26.1,7.0,0.00,NNE,15,2.5,-999.0,43,0.00,,,-99.99,,2013-04-14 07:59:00,